Home > Weather > Eferding > Past weeks

Flag for Austria Weather for the Past 2 Weeks in Eferding, Upper Austria, Austria

Now
54 °F

Sunny.


Feels Like: 53 °F
Forecast: 51 / 70 °F
Wind: 6 mph from East

Location: Linz / Hoersching-Flughafen

Current Time: May 6, 2016 at 9:43:27 AM

Latest Report: May 6, 2016 at 9:00 AM


Visibility: 11 mi

Pressure: 30.12 "Hg

Humidity: 76%

Dew Point: 47 °F

Location of EferdingLocation

Historic Weather in Eferding — Graph

°F

Eferding Temperature Yesterday

Maximum temperature yesterday: 57 °F (at 6:00 PM)
Minimum temperature yesterday: 44 °F (at 2:00 AM)
Average temperature yesterday: 50 °F

High & Low Weather Summary for the Past Weeks

 TemperatureHumidityPressure
High67 °F (Apr 22, 6:00 PM)97% (Apr 29, 4:00 AM)30.38 "Hg (Apr 29, 4:00 AM)
Low30 °F (Apr 29, 6:00 AM)23% (Apr 30, 6:00 PM)29.61 "Hg (Apr 23, 7:00 PM)
Average50 °F70%30.02 "Hg
* Reported Apr 21 8:00 AM — May 6 8:00 AM, Eferding, Weather by CustomWeather, © 2016

Note: Actual official high and low records may vary slightly from our data, if they occured in-between our weather recording intervals... More about our weather records

Advertising

Eferding Weather History for the Previous 24 Hours

Scroll right to see more
 ConditionsComfort  
Time TempWeatherWind HumidityBarometerVisibility
8:00 AM
Fri, May 6
52 °FPassing clouds.6 mph82%30.13 "Hg9 mi
7:00 AM49 °FPassing clouds.5 mph90%30.14 "Hg6 mi
6:00 AM47 °FPassing clouds.5 mph92%30.14 "Hg5 mi
5:00 AM48 °FClear.5 mph92%30.15 "Hg6 mi
4:00 AM47 °FClear.5 mph94%30.16 "Hg6 mi
3:00 AM47 °FCool.N/A94%30.18 "Hg6 mi
2:00 AM46 °FCool.5 mph95%30.19 "Hg5 mi
1:00 AM47 °FCool.N/A93%30.21 "Hg6 mi
12:00 AM48 °FCool.N/A91%30.21 "Hg6 mi
11:00 PM
Thu, May 5
N/APassing clouds.10 mphN/AN/A14 mi
10:00 PM49 °FClear.3 mph86%30.22 "Hg10 mi
9:00 PM52 °FClear.N/A79%30.22 "Hg14 mi
8:00 PM55 °FSunny.N/A72%30.21 "Hg19 mi
7:00 PM57 °FPassing clouds.5 mph70%30.22 "Hg17 mi
6:00 PM57 °FPassing clouds.5 mph67%30.23 "Hg14 mi
5:00 PM57 °FScattered clouds.6 mph67%30.25 "Hg17 mi
4:00 PM57 °FScattered clouds.6 mph67%30.26 "Hg16 mi
3:00 PM57 °FPartly sunny.5 mph67%30.28 "Hg16 mi
2:00 PM55 °FOvercast.N/A72%30.30 "Hg9 mi
1:00 PM52 °FOvercast.N/A77%30.32 "Hg22 mi
12:00 PM50 °FOvercast.N/A79%30.34 "Hg9 mi
11:00 AM48 °FOvercast.N/A82%30.35 "Hg9 mi
10:00 AM47 °FOvercast.N/A84%30.35 "Hg16 mi
9:00 AMN/APassing clouds.3 mphN/AN/A2 mi
Weather by CustomWeather, © 2016

See weather overviewHow to use our weather pages